Estación de Morza Norte

Ultimos registro cada 15 minutos 32
Estación Fecha / Hora Temperatura Humedad Lluvia Velocidad Dirección Radiación Presion
32 Morza Norte 06-05-2026 07:45 8,9 74 0 0 291 11 1015,6
31 Morza Norte 06-05-2026 07:30 7,8 73 0 0 270 7 1015,6
30 Morza Norte 06-05-2026 07:15 6,5 73 0 0 132 0 1014,9
29 Morza Norte 06-05-2026 07:00 5,8 72 0 0 132 0 1014,5
28 Morza Norte 06-05-2026 06:45 5,4 72 0 0 132 0 1014,4
27 Morza Norte 06-05-2026 06:30 5,4 99 0 0 132 0 1014,5
26 Morza Norte 06-05-2026 06:15 5,9 72 0 0 132 0 1014,8
25 Morza Norte 06-05-2026 06:00 6,1 71 0 0 132 0 1014,6
24 Morza Norte 06-05-2026 05:45 6,3 71 0 0 132 0 1014,8
23 Morza Norte 06-05-2026 05:30 6,6 99 0 0 292 0 1014,9
22 Morza Norte 06-05-2026 05:15 6,8 71 0 0 295 0 1014,9
21 Morza Norte 06-05-2026 05:00 6,9 71 0 0 297 0 1014,6
20 Morza Norte 06-05-2026 04:45 7,2 71 0 0 297 0 1014,6
19 Morza Norte 06-05-2026 04:30 7,6 99 0 0 299 0 1014,7
18 Morza Norte 06-05-2026 04:15 7,4 71 0 0 312 0 1014,7
17 Morza Norte 06-05-2026 04:00 7,7 71 0 0 128 0 1014,7
16 Morza Norte 06-05-2026 03:45 8,4 71 0 0 128 0 1015,3
15 Morza Norte 06-05-2026 03:30 8,7 99 0 0 128 0 1015,3
14 Morza Norte 06-05-2026 03:15 8,8 71 0 0 128 0 1015,4
13 Morza Norte 06-05-2026 03:00 8,7 71 0 0 153 0 1015,5
12 Morza Norte 06-05-2026 02:45 8,8 71 0 0 156 0 1015,4
11 Morza Norte 06-05-2026 02:30 8,7 99 0 0 156 0 1015,2
10 Morza Norte 06-05-2026 02:15 8,2 70 0 0 156 0 1015,3
9 Morza Norte 06-05-2026 02:00 8,3 70 0 0 156 0 1015,2
8 Morza Norte 06-05-2026 01:45 8,8 99 0 0 156 0 1015,1
7 Morza Norte 06-05-2026 01:30 9,1 70 0 0 10 0 1015,2
6 Morza Norte 06-05-2026 01:15 9,7 71 0 0 7 0 1015,1
5 Morza Norte 06-05-2026 01:00 9,5 68 0 0 255 0 1015,5
4 Morza Norte 06-05-2026 00:45 9,5 99 0 0 255 0 1015,5
3 Morza Norte 06-05-2026 00:30 9,7 68 0 0 255 0 1015,6
2 Morza Norte 06-05-2026 00:15 9,8 68 0 0 255 0 1015,8
1 Morza Norte 06-05-2026 00:00 10 67 0 0 255 0 1015,8